Date,TemperatureHighF,TemperatureAvgF,TemperatureLowF,DewpointHighF,DewpointAvgF,DewpointLowF,HumidityHigh,HumidityAvg,HumidityLow,PressureMaxIn,PressureMinIn,WindSpeedMaxMPH,WindSpeedAvgMPH,GustSpeedMaxMPH,PrecipitationSumIn
2013-1-13,64,59,46,56,53,43,93,82,68,29.83,29.71,16,6,27,0.20
2013-1-14,46,31,30,43,23,19,91,71,68,30.24,29.83,10,3,16,0.20
2013-1-15,32,31,26,22,22,19,75,67,65,30.16,29.91,5,1,8,0.20
2013-1-16,35,31,30,28,26,21,85,79,66,29.92,29.78,9,1,11,0.00
2013-1-17,34,32,28,26,24,16,76,70,60,30.14,29.91,9,1,15,0.01
2013-1-18,34,26,14,20,14,6,75,59,48,30.35,30.08,8,1,16,0.00
2013-1-19,44,34,32,26,22,20,63,59,47,30.08,30.00,0,0,2,0.04
2013-1-25,29,27,27,11,11,7,51,50,39,30.04,29.97,0,0,0,0.80
2013-1-26,32,26,0,21,14,10,72,57,51,30.19,29.92,11,4,13,0.05
2013-1-27,42,30,7,25,16,0,75,57,42,30.15,29.88,7,2,9,0.00
2013-1-28,52,40,32,51,35,25,98,82,74,29.88,29.64,7,1,11,0.63
2013-1-29,70,60,42,56,52,42,99,75,57,29.66,29.42,12,2,17,0.51
2013-1-30,63,59,0,54,49,31,90,72,66,30.02,29.42,0,0,0,0.53
2013-1-31,35,27,21,31,18,8,88,69,46,30.48,30.02,0,0,0,0.01
2013-2-1,21,13,4,16,1,-5,84,58,42,30.92,30.48,0,0,0,0.00
2013-2-2,26,18,2,22,11,-5,85,74,64,30.90,30.56,0,0,0,0.00
2013-2-3,26,22,19,21,15,7,85,74,58,30.65,30.44,0,0,0,0.00
2013-2-4,31,20,7,24,13,0,85,73,46,30.65,30.39,0,0,0,0.01
2013-2-6,28,16,13,24,10,8,85,77,72,30.44,30.28,0,0,0,0.09
2013-2-7,38,24,13,31,18,8,87,78,59,30.30,29.91,0,0,0,0.01
2013-2-8,43,34,28,38,27,18,93,75,65,30.19,29.81,12,3,19,0.17
2013-2-9,43,29,18,20,16,11,77,59,32,30.10,29.81,4,2,8,0.17
2013-2-10,50,36,17,40,24,11,81,62,36,29.82,29.40,14,2,21,0.02
2013-2-11,47,45,0,40,36,26,76,71,49,30.09,29.29,11,7,19,0.01
2013-2-12,40,36,25,26,24,18,79,63,58,29.93,29.87,5,4,8,0.01
2013-2-13,37,28,18,29,23,13,87,79,63,29.87,29.68,4,0,8,0.01
2013-2-14,46,30,16,38,25,11,89,82,72,29.93,29.80,10,2,17,0.18
2013-2-15,41,31,23,37,25,19,88,80,65,30.07,29.92,6,1,10,0.01
2013-2-16,38,24,10,23,13,3,85,66,30,30.06,29.93,12,2,19,0.09
2013-2-17,27,21,14,17,5,2,79,49,40,30.21,29.98,12,4,16,0.11
2013-2-18,52,38,14,30,20,3,62,49,35,30.20,29.77,14,4,19,0.11
2013-2-19,50,36,28,38,26,13,85,67,45,29.88,29.65,17,9,29,0.20
2013-2-20,28,25,21,14,12,7,65,57,54,30.23,29.88,8,6,17,0.20
2013-2-21,31,23,21,14,11,7,69,58,47,30.31,30.17,8,2,11,0.00
2013-2-22,39,29,25,35,21,12,86,71,56,30.18,29.93,6,2,11,0.07
2013-2-23,47,36,25,32,27,18,87,69,46,29.95,29.85,12,2,16,1.51
2013-2-24,33,29,24,21,19,17,82,68,53,30.13,29.88,8,2,14,0.67
2013-2-25,50,31,18,24,20,11,80,65,34,30.17,30.03,7,1,11,0.28
2013-2-26,43,38,33,40,33,19,91,82,54,29.92,29.60,11,2,18,1.13
2013-2-27,43,39,33,40,32,-14,91,80,10,29.80,29.60,11,4,19,0.25
2013-2-28,37,34,32,31,22,-14,84,70,10,29.98,29.73,11,5,18,0.27
2013-3-1,33,31,28,29,23,15,84,70,57,30.11,29.96,4,1,8,0.01
2013-3-2,32,28,26,20,19,16,74,67,57,30.11,30.05,7,2,12,0.00
2013-3-3,28,27,25,18,13,11,73,56,50,30.10,30.08,6,3,8,0.00
2013-3-4,28,28,26,17,12,12,66,53,51,30.15,30.08,4,3,7,0.00
2013-3-5,43,35,28,29,24,17,85,63,45,30.15,29.62,4,1,10,0.02
2013-3-6,44,37,32,32,29,26,85,73,63,30.26,29.62,7,2,10,0.37
2013-3-7,45,37,32,29,26,25,78,67,49,30.42,30.25,11,3,14,0.00
2013-3-8,51,36,24,27,23,18,83,60,34,30.53,30.41,8,1,15,0.00
2013-3-9,61,39,20,34,26,16,83,62,29,30.49,30.19,10,2,14,0.00
2013-3-10,73,49,38,39,34,28,80,58,19,30.19,29.99,6,1,11,0.04
2013-3-11,64,54,46,53,41,33,99,65,32,30.00,29.72,16,5,24,0.44
2013-3-12,46,38,33,42,32,27,88,79,66,30.10,29.89,14,4,21,0.01
2013-3-13,36,31,27,32,23,16,96,73,53,30.32,30.04,14,5,21,0.00
2013-3-14,43,32,23,20,17,13,78,57,34,30.37,29.90,10,3,17,0.00
2013-3-15,52,37,22,40,28,18,95,73,53,29.90,29.60,11,2,17,0.05
2013-3-16,58,48,34,50,44,29,99,86,73,29.76,29.36,11,3,17,0.08
2013-3-17,40,35,32,29,26,24,82,70,56,29.92,29.76,5,1,10,0.00
2013-3-18,51,40,32,50,37,25,99,89,69,29.83,29.37,15,4,25,0.80
2013-3-19,44,37,33,42,23,14,90,57,36,29.78,29.51,16,10,30,0.00
2013-3-20,40,33,24,21,15,6,62,47,33,29.77,29.63,15,5,27,0.00
2013-3-21,32,25,18,17,10,4,72,54,37,29.72,29.65,16,4,26,0.00
2013-3-22,45,30,23,19,15,14,70,55,32,30.04,29.72,11,4,14,0.00
2013-3-23,52,36,18,29,19,13,86,55,26,30.05,29.94,11,2,14,0.06
2013-3-24,40,34,30,31,24,18,89,69,45,29.95,29.42,8,2,14,0.01
2013-3-25,36,34,32,32,30,28,94,86,73,29.82,29.41,9,3,14,0.41
2013-3-26,46,37,32,33,28,22,92,70,42,30.13,29.82,11,3,18,0.05
2013-3-27,47,38,33,30,25,19,77,61,35,30.22,30.10,12,4,21,0.00
2013-3-28,49,39,29,28,24,20,76,57,38,30.28,30.19,14,3,23,0.00
2013-3-29,55,39,22,33,25,19,89,61,32,30.27,30.17,11,2,20,0.00
2013-3-30,61,43,22,37,24,19,90,55,22,30.24,29.96,8,1,17,0.00
2013-3-31,55,44,34,47,39,27,99,83,63,29.96,29.74,10,2,17,0.06
2013-4-1,48,42,30,41,24,12,85,54,26,30.07,29.73,14,4,21,0.00
2013-4-2,46,33,18,19,13,8,73,45,24,30.21,30.07,13,2,23,0.00
2013-4-3,50,33,17,25,13,4,84,49,23,30.37,30.20,10,2,16,0.00
2013-4-4,56,36,20,25,15,9,72,46,21,30.35,29.97,7,1,11,0.00
2013-4-5,63,47,22,33,24,18,92,46,22,30.16,29.97,9,2,17,0.00
2013-4-6,63,44,24,26,19,10,75,42,19,30.25,29.94,10,2,15,0.00
2013-4-7,74,62,46,48,41,25,81,47,30,30.00,29.87,20,5,28,0.00
2013-4-8,74,56,43,54,48,42,97,80,40,30.00,29.88,14,2,24,0.00
2013-4-9,78,57,53,55,52,49,92,84,43,30.03,29.93,5,0,8,0.00
2013-4-10,86,72,57,64,59,55,99,65,46,29.97,29.81,14,5,27,0.00
2013-4-11,77,63,54,64,59,53,99,87,60,29.91,29.56,8,1,10,0.33
2013-4-12,61,54,41,60,50,34,99,87,66,29.90,29.49,11,3,15,0.39
2013-4-13,54,41,0,38,35,32,88,74,49,30.04,29.89,11,2,17,0.00
2013-4-14,69,46,0,43,37,29,99,42,29,30.24,30.04,9,2,14,0.00
2013-4-15,71,61,45,55,49,41,90,66,53,30.15,30.03,13,4,19,0.00
2013-4-16,70,64,0,64,55,53,99,69,60,30.29,30.11,5,4,19,0.87
2013-4-17,61,60,60,60,59,58,99,98,93,30.25,30.14,1,0,4,0.05
2013-4-18,86,71,54,64,58,53,99,69,37,30.17,29.93,18,5,27,0.05
2013-4-19,77,67,41,56,49,31,71,53,48,30.14,29.93,14,5,28,0.12
2013-4-20,50,40,29,32,29,24,86,65,39,30.52,30.14,14,5,24,0.00
2013-4-21,60,41,24,36,25,19,94,58,24,30.81,29.23,8,2,12,0.00
2013-4-22,73,51,30,42,34,25,89,56,24,30.43,30.20,11,2,13,0.00
2013-4-23,75,55,35,50,39,31,87,57,28,30.21,29.94,8,2,14,0.00
2013-4-24,63,48,33,58,42,32,98,81,53,30.23,29.80,8,2,14,0.35
2013-4-25,59,43,28,42,34,28,99,73,39,30.38,30.22,12,3,26,0.00
2013-4-26,67,47,28,41,32,27,99,63,25,30.49,30.37,8,1,14,0.00
2013-4-27,76,55,32,46,36,26,99,58,18,30.39,30.14,9,2,13,0.46
2013-4-28,67,57,51,60,54,44,99,89,72,30.15,29.89,7,2,12,0.59
2013-4-29,56,56,56,56,56,56,99,99,99,30.02,29.92,2,0,7,0.00
2013-4-30,93,72,60,67,54,49,83,54,34,30.14,30.06,0,0,0,0.26
2013-5-1,94,70,52,64,53,44,79,57,33,30.27,30.12,0,0,0,0.00
2013-5-2,89,70,52,58,53,44,77,57,34,30.31,30.17,0,0,0,0.00
2013-5-3,87,64,53,52,46,34,80,59,21,30.20,30.07,0,0,18,0.00
2013-5-4,77,64,53,47,42,39,61,46,30,30.14,30.03,1,0,3,0.00
2013-5-5,88,65,48,46,39,31,69,41,19,30.09,29.96,6,0,8,0.05
2013-5-6,74,61,56,59,50,39,99,68,46,30.03,29.99,6,1,9,0.02
2013-5-7,59,56,52,57,55,52,99,96,88,30.00,29.96,4,1,7,0.05
2013-5-8,77,63,52,60,55,51,99,77,43,30.01,29.92,9,1,11,0.01
2013-5-9,83,65,47,61,54,47,99,73,35,30.04,29.97,11,2,14,0.00
2013-5-10,76,63,56,65,61,55,99,91,65,30.02,29.85,10,2,15,0.51
2013-5-11,62,57,47,62,52,41,98,85,75,29.96,29.84,17,4,60,0.01
2013-5-12,55,46,33,44,34,29,99,65,39,30.14,29.96,14,4,25,0.01
2013-5-13,59,45,34,45,33,27,99,66,32,30.20,30.10,9,2,17,0.00
2013-5-14,78,52,31,56,41,30,99,73,34,30.18,29.86,11,2,18,0.00
2013-5-15,89,76,55,62,58,53,95,57,36,29.87,29.81,16,5,29,0.00
2013-5-16,81,70,56,67,61,52,99,75,37,30.03,29.85,11,2,17,0.13
2013-5-17,87,69,56,65,62,56,99,81,44,30.14,30.02,8,1,12,0.00
2013-5-18,84,67,56,67,61,56,99,83,51,30.53,28.14,6,1,11,0.00
2013-5-19,85,69,56,69,63,56,99,84,55,30.04,29.83,9,1,12,0.00
2013-5-20,85,70,60,72,66,60,99,90,60,30.09,29.92,7,2,12,0.00
2013-5-21,88,75,65,70,68,64,99,79,46,29.96,29.70,8,2,18,0.00
2013-5-22,84,73,61,67,63,59,98,73,46,31.52,28.93,12,3,21,0.04
2013-5-23,77,66,50,64,59,43,98,80,47,30.05,29.83,15,4,24,0.02
2013-5-24,61,50,37,44,38,34,95,66,39,30.34,30.05,12,3,20,0.00
2013-5-25,64,52,31,46,37,30,99,64,39,30.40,30.32,8,3,17,0.00
2013-5-26,64,63,51,42,39,39,73,42,39,30.34,30.24,7,6,11,0.00
2013-5-27,51,51,51,42,42,42,73,73,73,30.25,30.25,0,0,8,0.00
2013-5-28,80,53,0,61,45,42,73,70,51,30.25,30.02,2,0,8,0.07
2013-5-29,72,72,67,62,60,60,85,67,66,30.13,30.02,0,0,0,0.07
2013-5-30,87,75,59,69,63,59,99,69,43,30.22,30.09,7,3,12,0.00
2013-5-31,90,73,57,68,63,57,99,74,41,30.14,30.00,14,3,26,0.19
2013-6-1,87,74,64,70,67,63,99,79,53,30.04,29.83,15,4,22,0.01
2013-6-2,80,76,68,70,63,57,86,64,46,29.94,29.82,12,5,18,0.01
2013-6-3,80,80,80,58,58,58,48,48,48,29.91,29.91,5,5,8,0.01
2013-6-4,80,72,37,58,50,37,99,50,31,30.19,29.91,8,3,17,0.01
2013-6-5,87,64,47,64,54,46,99,72,38,30.16,29.93,7,1,11,0.00
2013-6-6,73,68,64,68,66,61,99,92,81,29.94,29.80,6,1,9,7.18
2013-6-7,60,60,60,58,58,58,95,95,95,29.87,29.87,1,1,2,0.00
2013-6-8,82,71,59,62,56,53,94,63,42,30.12,30.02,6,2,11,7.88
2013-6-9,85,73,61,66,62,59,94,72,47,30.15,30.01,7,2,10,1.81
2013-6-10,72,68,66,67,64,61,98,86,68,30.01,29.82,8,1,14,21.38
2013-6-11,85,67,0,68,63,62,86,84,49,29.93,29.86,3,0,6,0.00
2013-6-12,89,78,61,74,70,61,99,77,53,30.04,29.81,6,1,12,3.79
2013-6-13,80,74,65,73,65,56,98,74,49,30.00,29.75,13,3,21,1.93
2013-6-14,83,74,53,60,58,53,98,60,43,30.19,30.03,9,2,14,2.14
2013-6-15,75,69,66,66,60,59,87,71,66,30.19,30.15,1,0,2,4.94
2013-6-16,80,71,66,68,64,60,96,80,62,30.16,30.09,12,3,22,4.11
2013-6-17,88,78,63,71,67,62,99,71,50,30.14,30.05,8,2,13,5.92
2013-6-18,86,86,86,68,68,68,54,54,54,30.05,30.05,2,2,2,5.92
2013-6-22,93,80,59,72,66,59,99,67,43,30.34,30.05,8,2,14,16.07
2013-6-23,69,67,64,68,66,63,99,97,96,30.27,30.24,2,0,3,0.00
2013-6-24,90,75,61,69,66,61,99,77,44,30.31,30.17,7,1,11,3.15
2013-6-25,91,79,71,74,71,68,91,77,51,30.23,30.05,14,3,17,1.13
2013-6-26,89,78,67,73,70,66,99,78,52,30.10,29.97,7,3,12,0.33
2013-6-27,85,72,67,73,69,66,99,91,64,29.98,29.83,9,1,17,1.58
2013-6-28,84,74,64,71,66,60,99,80,50,29.84,29.72,14,2,20,2.31
2013-6-29,82,70,58,68,64,58,99,82,55,29.85,29.72,7,2,13,2.86
2013-6-30,82,71,61,70,64,8,99,82,10,30.00,29.84,6,1,49,2.99
2013-7-1,88,73,65,68,65,8,98,80,10,30.10,29.85,4,1,49,2.99
2013-7-2,85,75,66,71,67,65,98,78,58,30.00,29.86,8,2,13,0.54
2013-7-3,86,74,70,71,68,67,97,83,55,30.10,29.99,8,1,12,0.86
2013-7-4,80,73,69,70,68,67,97,87,66,30.20,30.08,8,2,12,0.52
2013-7-5,83,73,66,71,68,65,97,87,64,30.17,30.10,8,2,14,0.65
2013-7-6,87,72,68,72,68,67,97,87,56,30.17,29.14,8,1,13,0.01
2013-7-7,84,73,65,69,66,64,96,80,55,30.13,30.03,8,2,12,0.02
2013-7-8,86,78,65,73,70,64,97,77,61,29.96,29.88,10,2,13,0.13
2013-7-9,89,75,69,78,70,67,95,85,62,29.93,29.81,8,2,16,0.00
2013-7-10,90,74,64,76,70,63,96,88,56,29.84,29.66,11,1,15,0.00
2013-7-11,82,68,57,68,61,55,97,82,52,29.84,29.76,4,1,5,0.00
2013-7-12,83,70,55,63,59,53,97,70,47,29.92,29.83,6,3,10,0.00
2013-7-13,89,74,60,70,64,58,96,74,46,30.01,29.89,8,1,13,0.00
2013-7-14,92,78,65,74,68,64,96,74,50,30.09,29.99,11,2,17,0.00
2013-7-15,98,82,68,74,70,66,96,70,40,30.15,30.06,6,1,9,0.00
2013-7-16,98,82,67,77,71,66,95,72,42,30.15,30.07,5,1,9,0.00
2013-7-17,98,84,70,76,72,68,94,71,43,30.14,29.99,6,1,11,0.00
2013-7-18,96,83,70,78,73,69,95,73,44,30.03,29.86,8,1,14,0.12
2013-7-19,94,80,70,76,72,65,96,77,49,29.87,29.75,13,2,21,0.11
2013-7-20,82,74,70,72,69,66,93,85,66,30.03,28.97,5,1,12,2.22
2013-7-21,87,75,68,73,69,66,95,83,57,30.09,30.00,4,1,8,6.75
2013-7-22,76,72,68,72,69,66,95,91,80,30.05,29.87,7,1,11,6.70
2013-7-23,86,75,67,74,69,64,95,82,61,29.91,29.77,9,2,14,11.46
2013-7-24,78,70,58,66,58,54,96,67,46,30.07,29.86,7,2,11,2.57
2013-7-25,83,66,50,61,54,49,96,70,41,30.16,30.07,6,1,9,4.11
2013-7-26,85,69,51,64,57,50,96,70,42,30.17,30.06,6,1,10,0.69
2013-7-27,74,72,67,63,61,57,72,69,69,30.06,29.99,0,0,0,0.69